Regional Weather Roundup
Issued by NWS

Home | Current Version | Previous Version | Graphics & Text | Print | Product List | Glossary On
Versions: 1 2 3 4 5 6 7 8 9 10 11 12 13 14 15 16 17 18 19 20 21 22 23 24 25 26 27 28 29 30 31 32 33 34 35 36 37 38 39 40 41 42 43 44 45 46 47 48 49 50
000
ASUS45 KBOU 182207
RWRCO

WEATHER ROUNDUP FOR COLORADO
NATIONAL WEATHER SERVICE DENVER/BOULDER CO
400 PM MDT FRI AUG 18 2017

NOTE: "FAIR" INDICATES FEW OR NO CLOUDS BELOW 12000 FEET WITH NO
SIGNIFICANT WEATHER AND/OR OBSTRUCTIONS TO VISIBILITY.

COZ001>005-013-030-031-182300-
...NORTHWEST COLORADO...

CITY           SKY/WX    TMP DP  RH WIND       PRES   REMARKS
CRAIG          FAIR      87  25  10 N8        30.22F
HAYDEN         FAIR      83  31  15 NW15      30.25F
MEEKER         FAIR      85  32  15 VRB6      30.22F
RABBIT EARS PA FAIR      64  34  32 NW7G18    30.57S
STEAMBOAT SPGS FAIR      82  31  15 W15G23    30.26F
WALDEN         FAIR      75  28  17 W9        30.38F
$$

COZ006>008-011-182300-
...WEST CENTRAL VALLEYS...

CITY           SKY/WX    TMP DP  RH WIND       PRES   REMARKS
GRAND JUNCTION FAIR      92  33  12 W14G24    30.11F
MONTROSE       FAIR      88  34  14 N8        30.19F
EAGLE          FAIR      86  29  12 W14       30.24F
RIFLE          FAIR      91  25   9 W21G28    30.15F
DELTA          FAIR      93  32  11 CALM      30.14F
NUCLA          FAIR      88  28  11 N5        30.23F
$$

COZ017>023-064>068-182300-
...SOUTHWEST COLORADO...

CITY           SKY/WX    TMP DP  RH WIND       PRES   REMARKS
DURANGO        FAIR      86  25  11 NW13      30.26F
CORTEZ         FAIR      86  28  12 NW8       30.21F
PAGOSA SPRINGS FAIR      79  18  10 CALM      30.35F
TELLURIDE      FAIR      74  28  18 NW7       30.48F
WOLF CREEK PAS NOT AVBL
$$

COZ009-010-012-014-032>034-037-058>063-182300-
...CENTRAL COLORADO...

CITY           SKY/WX    TMP DP  RH WIND       PRES   REMARKS
ASPEN          FAIR      79  34  19 VRB5      30.33F
BUENA VISTA    CLOUDY    78  27  15 SE8       30.33F
COPPER MTN     PTSUNNY   63  28  27 NW3       30.69S
BERTHOUD PASS  PTSUNNY   52  46  82 W21G28    30.71S
COTTONWOOD PAS FAIR      79  23  12 N3        30.50S
GUNNISON       FAIR      79  37  22 NE9G20    30.33F
KREMMLING      FAIR      86  27  11 W3        30.31F
LEADVILLE      FAIR      70  25  18 NW12G17   30.46F
MONARCH PASS   FAIR      63  23  22 W18G28    30.78F
SALIDA         FAIR      84  23  10 SW6       30.37F
SUNLIGHT       FAIR      63  34  34 SW10G21   30.61F
WILKERSON PASS FAIR      66  28  24 SW10G16   30.64F
$$

COZ069>075-182300-
...SAN LUIS VALLEY/SANGRE DE CRISTO MOUNTAINS...

CITY           SKY/WX    TMP DP  RH WIND       PRES   REMARKS
ALAMOSA        FAIR      79  32  18 VRB3      30.33F
DEL NORTE      FAIR      78  38  23 SE12G17   30.36F
LA VETA PASS   NOT AVBL
SAGUACHE       FAIR      79  36  21 SE5       30.35F
$$

COZ035-036-038>040-182300-
...NORTHERN COLORADO FRONT RANGE...

CITY           SKY/WX    TMP DP  RH WIND       PRES   REMARKS
DENVER INTL AP FAIR      87  37  17 CALM      30.14F
DMNS CITY PARK   N/A     88  38  17 E2G12     30.13S
AURORA         MOSUNNY   87  42  20 E5        30.16F
FRONT RANGE AP MOSUNNY   88  37  16 NE7       30.16F
ERIE MUNI ARPT FAIR      88  36  15 NE10      30.16F
BOULDER MUN AP FAIR      88  41  19 NE8       30.13F
CENTENNIAL     FAIR      86  36  16 CALM      30.17F
BROOMFIELD     MOSUNNY   86  37  17 VRB3      30.17F
FORT COLLINS   FAIR      86  46  24 S7        30.13F
LONGMONT       FAIR      89  42  19 E3        30.14F
$$

COZ041-046-047-076>085-087-088-182300-
...PIKES PEAK/PALMER DIVIDE AND SOUTHERN FOOTHILLS...

CITY           SKY/WX    TMP DP  RH WIND       PRES   REMARKS
COLO. SPRINGS  FAIR      85  43  22 S14       30.22F
A. F. ACADEMY  PTSUNNY   79  41  25 S10       30.22F
SCHRIEVER AFB  FAIR      81  41  24 S9        30.23F
CHEYENNE MTN   FAIR      77  39  25 S14G21    30.22F
ELLICOTT       FAIR     N/A N/A N/A S10       30.21F
FALCON         FAIR      80  38  22 S6G17     30.29F
FORT CARSON    FAIR      84  44  24 SE12      30.18F
LIMON          FAIR      84  42  22 SW6       30.17F
MONUMENT HILL  FAIR      77  45  31 S6        30.30F
CANON CITY     SUNNY     91  46  21 E6G20     30.13F
WALSENBURG     FAIR      88  34  14 SE5       30.20F
TRINIDAD       FAIR      86  35  16 N6        30.19F
$$

COZ042>045-048>051-090-091-182300-
...NORTHEAST COLORADO...

CITY           SKY/WX    TMP DP  RH WIND       PRES   REMARKS
GREELEY ARPT   FAIR      86  45  23 CALM      30.11F
AKRON          FAIR      85  41  21 SW3       30.12F
BURLINGTON     FAIR      86  50  28 E5        30.11F
WRAY           NOT AVBL
YUMA           FAIR      81  34  18 E6        30.10F
STERLING       FAIR      86  43  22 S3        30.07F
HOLYOKE        FAIR      88  46  23 CALM      30.08F
FORT MORGAN    FAIR      88  38  17 SE3       30.11F
$$

COZ086-089-092>099-182300-
...SOUTHEAST COLORADO...

CITY           SKY/WX    TMP DP  RH WIND       PRES   REMARKS
PUEBLO         FAIR      92  40  16 SE9G17    30.09F
LA JUNTA       FAIR      92  49  22 S7        30.08F
LAMAR          FAIR      91  53  27 E7        30.04F
SPRINGFIELD      N/A     90  48  23 CALM      30.09F
$$



USA.gov is the U.S. government's official web portal to all federal, state and local government web resources and services.